Regional Weather Roundup
Issued by NWS

Home | Current Version | Previous Version | Graphics & Text | Print | Product List | Glossary On
Versions: 1 2 3 4 5 6 7 8 9 10 11 12 13 14 15 16 17 18 19 20 21 22 23 24 25 26 27 28 29 30 31 32 33 34 35 36 37 38 39 40 41 42 43 44 45 46 47 48 49 50
000
ASUS43 KTOP 050508
RWRKS

WEATHER ROUNDUP FOR KANSAS
NATIONAL WEATHER SERVICE GOODLAND KS
1100 PM CST WED MAR 04 2015

NOTE:  "FAIR" INDICATES FEW OR NO CLOUDS BELOW 12,000 FEET WITH NO
SIGNIFICANT WEATHER AND/OR OBSTRUCTIONS TO VISIBILITY.

KSZ001>006-013>018-027>032-041>047-050600-
NORTHWEST KANSAS

CITY           SKY/WX    TMP DP  RH WIND       PRES   REMARKS
GOODLAND       CLEAR     16  10  77 W9        30.32R
HAYS           CLEAR     16  -2  45 W5        30.39R
HILL CITY      CLEAR     12   3  67 SW5       30.38R
RUSSELL        PTCLDY    17   4  56 SW6       30.38R
$$

KSZ061>065-074>080-084>089-050600-
SOUTHWEST KANSAS

CITY           SKY/WX    TMP DP  RH WIND       PRES   REMARKS
DODGE CITY     CLEAR     20   6  55 CALM      30.38R
ELKHART          N/A     21  12  68 W3          N/A
GARDEN CITY    FAIR      19  11  70 W3        30.37R
GREAT BEND     CLEAR     14   3  62 W6        30.40S
LIBERAL        PTCLDY    12   5  73 NW6       30.40R
PRATT          CLEAR     14   9  79 CALM      30.41R
$$

KSZ066>073-081>083-090>101-050600-
SOUTHEAST KANSAS

CITY           SKY/WX    TMP DP  RH WIND       PRES   REMARKS
CHANUTE        MOCLDY    24  11  57 NW3       30.41S
COFFEYVILLE    CLOUDY    24  14  65 N3        30.43R
HUTCHINSON     CLEAR     17   7  64 CALM      30.41S
MEDICINE LODGE   N/A     21  14  74 CALM      30.43R
NEWTON         CLEAR     19   3  49 N3        30.41R
PARSONS        MOCLDY    25  14  63 CALM      30.42R
WICHITA INTL   PTCLDY    21   9  59 NW3       30.42R
WICHITA JABRA  CLEAR     21   8  57 N6        30.41R
WICHITA MCCONL CLEAR     22   8  55 N6        30.41R
WINFIELD       PTCLDY    23  14  68 CALM      30.44R
$$

KSZ007>012-019>026-033>040-048>060-102>105-050600-
NORTHEAST KANSAS

CITY           SKY/WX    TMP DP  RH WIND       PRES   REMARKS
CONCORDIA      CLEAR     18   5  57 NE5       30.43R
EMPORIA        PTCLDY    20   9  62 NW5       30.40S
LAWRENCE       PTCLDY    23   4  44 N12       30.43R WCI  12
MANHATTAN      CLEAR     20   6  55 CALM      30.43R
MARYSVILLE     CLEAR     18   3  53 N8        30.44R
OLATHE IND     MOCLDY    21   8  57 N10       30.40R WCI  10
OLATHE EXE     MOCLDY    25   5  42 N13       30.39R WCI  14
SALINA         CLEAR     18   7  62 CALM      30.42S
TOPEKA BILLARD CLEAR     22   6  50 N10       30.43R WCI  11
TOPEKA FORBES  CLEAR     23   5  46 N8        30.41R
$$


USA.gov is the U.S. government's official web portal to all federal, state and local government web resources and services.